Wind_Gust
3 1 1 2 3 2 5 4 6 8 5 11 7 6 17 6 14 11 9 6 5 4 4 6 9 7 9 14 19 16 12 8 3 11 7 5 11 20 20 23 20 21 21 17 16 16 16 19 20 20 20 20 21 21 21 23 23 22 22 21 21 21 21 22 22 23 23 22 22 22 24 25 24 22 20 20 20 20 21 22 20 21 21 22 23 23 23 22 19 18 17 18 16 16 16 16 16
1 3 2 3 2 3 5 5 6 3 3 9 16 2 11 7 5 5 5 5 7 5 2 7 18 22 22 18 15 13 21 16 13 17 17 19 23 24 21 19 20 25 20 18 16 15 15 18 20 20 20 20 21 22 23 24 22 22 23 22 21 21 21 21 22 23 23 22 22 22 23 23 22 22 20 19 19 18 18 19 20 21 21 21 22 22 22 22 21 18 16 14 13 14 15 15 15
3 7 8 6 5 5 5 4 5 4 5 11 15 14 5 13 7 5 7 4 6 7 5 12 15 11 11 8 17 9 6 14 24 20 21 11 23 14 20 19 20 21 19 17 17 17 16 16 19 20 21 21 22 22 23 23 23 21 22 22 21 21 21 21 22 22 22 21 21 22 21 21 22 22 21 19 17 17 17 17 19 19 21 21 21 21 21 21 20 19 16 13 12 14 15 14 15
5 3 5 5 6 3 5 4 4 9 7 12 13 11 5 11 7 9 8 6 6 2 4 9 12 10 12 22 15 18 14 16 17 18 21 20 28 21 20 19 17 19 20 21 20 20 17 20 21 21 21 22 22 23 23 24 23 23 21 21 21 21 21 20 21 21 21 21 21 20 19 20 21 21 21 19 15 17 18 16 15 19 18 18 18 18 19 19 19 18 16 13 13 14 14 15 15
5 2 5 6 9 5 5 8 8 9 15 13 9 14 8 5 8 7 6 7 4 2 5 10 16 12 15 15 7 11 13 21 23 20 30 23 22 24 25 25 25 26 24 22 20 19 18 24 21 20 21 23 23 23 22 21 22 22 21 22 21 21 22 22 22 21 22 22 20 20 20 20 20 21 21 18 17 20 20 15 15 18 17 17 17 16 16 17 18 18 16 13 13 14 14 14 14
4 4 2 7 7 7 7 5 9 11 8 5 7 11 14 12 6 6 6 5 5 3 8 7 10 8 17 12 15 10 5 13 22 22 30 20 25 27 30 30 27 25 22 20 18 16 18 20 20 19 20 22 23 23 23 23 23 22 22 21 21 22 21 21 21 21 22 21 20 21 20 19 20 20 19 19 21 20 18 16 14 16 16 17 16 17 19 18 16 15 14 12 12 12 12 13 13
6 7 5 3 8 4 9 6 11 7 22 9 16 17 18 18 10 1 5 3 4 4 7 14 23 20 23 11 20 24 14 23 20 25 22 26 25 26 31 29 25 22 19 17 15 15 18 19 19 19 20 22 22 23 23 24 24 22 23 22 21 23 22 21 20 20 22 20 20 21 20 19 19 19 18 20 21 19 17 15 15 14 15 16 18 18 18 17 15 14 12 10 10 10 11 11 12
2 8 6 6 6 4 7 8 12 8 13 17 11 16 16 20 19 3 2 3 3 7 8 15 12 24 7 11 18 18 22 22 27 28 29 27 25 26 19 20 22 19 19 19 18 19 24 22 21 20 21 22 23 25 25 24 23 22 22 21 21 21 22 22 20 19 19 20 21 20 20 19 18 18 18 19 20 18 17 15 15 16 16 18 18 18 16 15 14 12 11 10 9 10 11 12 12
3 7 4 10 4 7 7 11 12 8 18 11 19 18 21 20 11 4 2 2 2 4 12 12 16 20 10 21 21 13 18 17 25 23 25 24 17 11 14 18 21 21 20 19 19 19 19 21 21 21 21 23 23 23 24 24 22 21 22 21 19 20 20 21 21 19 19 18 19 19 19 19 18 17 17 18 18 17 17 16 16 17 18 18 18 16 15 14 13 12 11 10 9 10 11 11 12
4 5 4 9 7 8 5 14 5 11 9 9 16 20 15 10 5 1 2 4 3 8 7 10 14 24 20 25 22 11 19 15 19 15 10 12 15 13 13 17 24 26 21 20 18 18 19 24 22 22 22 22 22 22 22 22 22 21 20 19 18 19 18 19 18 18 17 17 17 17 17 18 18 17 17 17 17 16 16 17 16 17 17 17 17 16 15 14 13 13 12 11 9 10 10 11 11
7 4 4 4 4 7 9 14 11 17 16 16 16 24 17 6 4 2 3 6 5 14 8 25 26 18 17 13 12 6 6 11 19 14 8 13 14 16 16 12 16 23 25 21 19 19 20 21 25 22 22 22 22 21 21 19 19 18 18 18 18 18 18 18 17 17 17 16 16 17 18 18 18 17 16 17 17 16 16 16 17 16 16 16 16 15 14 14 13 12 11 9 9 9 9 10 12
5 4 4 5 8 8 9 8 11 14 15 14 11 6 3 3 3 3 3 4 5 14 14 5 19 27 19 13 11 7 3 7 14 10 9 12 15 16 21 16 14 15 21 20 19 17 19 20 22 24 23 23 22 22 21 19 19 18 18 18 18 17 17 17 17 16 16 16 16 16 16 17 18 17 15 15 15 15 16 17 17 16 16 16 15 14 14 13 12 11 10 9 9 9 9 11 13
7 3 2 5 8 2 8 9 16 11 13 11 5 4 1 3 3 6 4 4 7 12 9 12 29 9 14 11 11 4 10 5 9 9 11 13 13 13 15 16 14 16 16 19 20 20 21 20 22 23 21 25 23 21 21 20 20 19 19 18 17 17 17 17 17 16 16 16 16 18 17 16 17 17 17 16 17 16 17 16 16 16 15 15 14 13 13 12 11 10 9 8 8 8 9 11 12
10 11 8 8 4 7 10 13 8 8 10 8 5 5 3 6 5 5 7 10 8 10 10 20 17 24 19 19 10 8 9 8 10 10 11 9 8 15 16 16 15 16 14 15 18 19 17 17 17 18 20 20 18 21 21 21 20 20 19 18 18 18 18 17 16 16 16 16 17 17 18 17 18 18 18 16 16 15 15 15 15 15 15 14 13 12 12 12 11 9 8 7 7 7 9 9 10
11 5 4 7 12 6 7 13 8 6 10 3 6 4 3 5 2 6 7 4 10 11 14 11 26 18 19 18 13 17 17 13 11 12 13 7 9 14 15 15 16 15 15 13 15 17 16 15 16 16 14 15 16 13 12 18 18 18 17 17 17 18 17 16 16 16 17 17 18 18 19 19 18 20 19 18 15 15 16 16 14 13 14 13 12 12 11 11 10 9 7 6 5 6 7 7 8
13 6 6 7 12 6 13 7 8 5 13 2 6 3 4 3 5 3 4 6 12 6 6 10 6 9 21 19 23 23 20 16 14 15 14 11 11 12 14 13 13 13 13 12 13 13 14 14 13 13 13 13 12 10 12 12 15 14 14 16 16 16 16 16 17 15 17 18 18 17 17 19 17 18 21 19 18 15 14 11 13 13 14 13 12 11 11 11 10 9 7 5 5 5 6 7 7
4 8 7 11 18 4 11 8 3 5 5 5 5 10 4 4 6 4 7 10 15 7 13 15 7 9 27 15 23 24 20 17 15 18 15 13 15 14 12 11 11 10 11 10 9 13 13 14 14 14 13 12 12 12 12 14 16 17 15 16 17 16 15 17 17 17 15 16 15 14 13 11 10 11 14 13 17 13 12 14 15 14 13 12 11 11 11 11 10 8 7 5 4 5 5 5 5
4 11 15 15 13 11 10 8 6 5 4 7 7 3 8 6 12 8 9 20 16 15 18 20 26 19 13 20 23 22 22 21 20 23 19 17 15 16 14 12 13 14 12 10 8 10 12 11 13 14 14 14 13 13 12 11 11 13 10 12 12 14 14 14 15 12 12 11 13 14 9 10 9 10 11 13 11 14 13 13 14 14 13 12 10 10 9 10 9 8 6 6 4 3 2 3 5
11 9 14 19 11 18 5 4 14 7 3 3 6 7 6 3 4 5 12 5 16 18 16 18 21 19 21 19 18 21 20 19 21 21 23 21 18 18 16 13 11 11 10 8 8 9 10 11 10 12 12 12 12 9 11 10 11 9 9 9 9 10 12 12 9 12 9 12 10 9 9 8 9 9 9 13 11 14 14 14 14 14 13 12 10 9 9 9 9 7 5 4 4 3 3 5 6
11 12 14 20 7 8 8 7 10 9 5 6 4 5 6 9 4 4 8 5 8 18 17 12 22 21 19 19 18 18 16 17 16 21 20 18 16 16 14 13 10 9 8 7 11 10 11 10 10 10 12 12 12 9 9 9 9 8 9 8 8 8 8 10 10 10 12 10 12 10 10 9 9 8 13 18 15 11 12 10 13 13 12 11 10 8 8 8 8 7 4 5 5 5 3 3 6
9 13 17 12 6 9 13 4 7 12 4 2 2 3 10 7 8 6 8 12 3 6 14 23 22 24 22 21 19 18 18 17 15 16 17 15 12 11 10 9 9 10 9 8 10 12 11 9 8 10 9 10 9 9 9 9 9 9 7 7 7 7 7 9 8 9 8 10 10 9 9 8 9 8 7 8 8 10 7 7 8 7 5 5 7 5 5 6 6 3 2 3 1 2 3 5 5
7 16 12 12 9 8 17 9 9 7 4 5 4 8 3 7 6 7 5 9 11 15 14 20 28 28 28 25 21 19 19 20 18 16 17 15 13 12 11 9 10 12 12 13 12 11 9 7 8 10 9 8 7 8 9 11 12 10 9 8 8 7 8 7 7 7 8 8 7 8 9 9 9 8 8 9 9 9 9 8 8 8 6 5 5 6 5 4 5 4 3 3 4 3 4 4 5
21 13 8 11 10 11 12 12 7 4 3 4 3 2 4 5 4 10 4 2 9 6 15 19 23 25 24 24 24 21 21 21 19 17 15 15 18 18 18 18 17 15 13 12 10 10 9 8 9 9 10 9 9 9 9 9 10 9 9 10 11 9 9 9 8 8 7 8 7 8 10 9 10 9 9 9 10 10 10 10 9 9 8 7 6 7 5 3 5 5 3 4 4 5 5 4 5
22 24 5 12 13 16 17 5 7 8 11 8 6 2 2 1 2 6 9 5 9 13 16 18 20 20 20 22 19 22 22 23 19 17 17 19 22 21 22 20 15 11 12 14 14 14 12 10 10 11 11 11 11 12 11 12 10 12 12 14 11 12 12 10 9 8 9 10 8 7 8 10 12 11 10 10 10 9 10 10 9 9 8 8 7 7 7 4 3 3 3 4 4 6 4 2 2
18 24 14 11 9 12 13 9 8 6 7 7 5 6 5 5 5 3 7 5 10 17 17 19 21 21 19 20 19 16 15 15 16 16 13 12 14 13 7 7 10 13 17 16 16 16 13 11 11 13 12 12 13 15 14 13 12 12 13 12 13 12 11 12 12 11 11 10 8 8 9 10 10 10 11 10 10 10 9 9 9 9 9 9 9 8 7 7 5 3 6 5 6 5 2 4 5
11 17 10 7 10 11 9 7 8 12 10 8 7 5 6 9 4 6 7 10 14 16 15 19 19 19 17 15 15 14 15 17 18 18 14 10 11 13 9 10 12 12 14 14 13 11 9 10 11 11 11 12 11 10 10 13 14 15 14 13 13 13 12 13 12 13 12 12 10 9 9 11 11 12 11 10 11 9 8 7 7 7 8 8 9 10 8 8 8 6 4 5 8 2 5 3 8
10 12 17 15 11 8 6 8 4 4 5 7 7 6 5 5 8 11 11 11 14 16 17 15 19 19 17 16 16 14 17 19 21 19 12 10 11 13 11 8 12 12 11 14 13 12 11 12 11 11 10 8 8 8 11 13 11 11 11 12 12 12 12 15 13 11 11 10 10 9 8 9 10 9 10 10 8 9 8 8 6 5 6 8 7 8 8 9 8 9 8 9 4 8 7 5 7
10 11 10 8 10 10 9 4 7 2 8 5 6 4 5 3 8 14 14 11 20 21 19 17 14 17 16 16 16 14 17 18 22 20 18 16 17 16 16 15 15 12 15 15 13 12 14 12 15 18 18 14 13 11 10 11 10 8 9 10 11 11 11 11 10 10 10 9 9 9 10 9 9 9 9 9 10 9 9 9 7 6 7 6 8 9 11 9 9 7 6 6 8 9 7 4 3
7 8 8 8 7 12 4 9 6 4 6 4 5 4 6 7 9 10 14 16 18 23 19 15 14 12 12 14 14 16 19 20 21 21 20 20 18 17 19 15 17 13 7 10 11 13 16 16 18 16 16 15 14 14 14 12 10 10 11 10 10 13 12 12 12 10 9 9 9 9 10 10 8 10 9 10 10 10 9 9 8 8 7 8 3 8 11 9 9 9 17 8 9 8 5 4 7
8 4 9 7 10 12 12 4 3 3 9 7 6 12 15 12 13 13 12 17 15 18 18 15 14 13 11 13 15 14 11 17 19 22 23 18 17 15 17 15 17 16 13 12 13 13 12 12 14 16 16 18 18 14 8 9 9 11 9 9 11 11 11 12 11 10 9 9 9 9 10 9 9 9 11 9 8 9 9 10 9 7 5 3 2 4 12 11 12 18 17 5 8 8 6 4 8
3 9 6 7 7 19 6 8 2 9 10 9 10 13 18 12 14 13 13 18 25 20 18 16 13 13 12 11 14 15 12 14 20 23 22 19 17 17 18 16 15 13 12 12 15 14 13 13 14 16 18 16 17 11 13 7 8 10 10 10 11 11 9 11 10 10 10 9 9 10 9 9 9 10 9 11 8 8 9 7 7 8 7 3 1 4 9 9 17 23 13 8 11 7 6 5 6
7 5 8 7 9 20 6 9 9 18 7 9 9 11 23 12 13 13 10 17 23 23 19 16 16 15 12 13 13 13 12 11 14 21 21 22 19 17 19 20 17 15 17 16 12 13 13 11 12 13 17 18 11 14 11 5 11 11 11 12 11 10 9 10 9 9 10 9 9 9 9 9 9 9 8 9 10 8 8 8 7 5 4 3 2 4 7 12 21 23 12 10 11 4 5 7 8
7 8 7 9 7 15 15 9 11 15 8 7 16 17 4 7 15 15 12 17 20 22 17 15 17 14 15 12 10 9 9 6 8 15 18 21 21 18 19 21 21 19 16 14 14 13 11 11 11 9 8 12 17 16 15 13 13 13 14 13 13 11 10 8 7 8 9 9 9 10 10 10 10 9 9 9 9 9 8 7 6 4 4 4 7 7 9 15 22 22 14 8 7 8 7 8 8
12 5 11 7 8 4 11 14 9 11 14 11 17 21 13 9 6 9 11 13 19 23 20 20 18 14 11 9 8 11 12 12 14 13 13 15 18 17 18 20 20 17 13 13 13 15 13 10 11 13 17 17 17 18 13 15 14 18 14 13 13 14 12 9 7 9 9 10 10 11 10 10 10 10 10 9 8 9 9 9 6 6 6 6 8 8 9 19 21 20 14 8 9 10 8 10 9
11 3 6 12 6 8 14 12 11 11 15 17 13 17 16 13 12 9 16 15 27 26 24 21 15 13 12 13 13 13 13 12 11 8 10 13 16 17 17 17 16 15 13 14 14 13 13 13 14 14 16 17 15 18 18 17 15 12 9 10 11 10 10 9 10 11 11 10 10 10 10 10 10 10 10 9 10 9 9 9 8 7 6 9 8 9 8 17 21 19 16 10 7 4 8 9 10
5 4 8 6 7 13 11 15 19 15 15 18 16 23 19 10 11 12 12 7 22 16 16 14 13 14 15 15 13 11 10 9 10 10 9 15 16 16 16 17 17 16 15 16 16 15 15 15 15 15 14 14 14 15 18 18 14 13 12 7 8 8 10 12 12 12 11 11 11 11 10 10 9 10 10 10 10 10 10 11 10 8 7 9 10 10 5 16 21 18 13 11 8 9 6 10 9
9 8 6 8 10 12 9 14 15 14 18 15 19 13 12 4 8 9 7 10 9 21 21 20 17 17 14 10 10 10 10 14 13 14 13 17 18 19 18 18 17 16 17 19 18 17 18 17 19 18 15 15 16 17 16 19 16 13 8 12 11 12 16 15 16 14 14 13 13 12 11 10 9 9 10 10 10 11 10 10 10 9 7 9 10 10 7 14 16 14 12 9 13 13 7 7 9
10 7 6 17 10 14 13 16 11 8 15 7 6 9 10 9 9 5 4 10 12 10 11 13 13 12 13 13 12 13 10 5 9 8 10 15 18 17 18 19 20 22 19 19 21 21 18 19 20 18 15 17 17 19 16 15 15 19 18 18 13 17 16 17 16 13 13 12 13 11 11 10 10 10 10 9 8 9 11 10 10 10 9 9 8 8 8 16 17 16 11 10 4 14 13 12 14
9 7 8 13 12 9 14 13 4 3 11 9 9 11 8 11 8 7 6 5 8 19 22 22 19 14 15 14 15 11 7 8 6 8 10 16 18 19 19 19 19 22 22 21 19 19 20 20 18 17 17 19 18 18 16 15 13 13 17 17 20 19 12 9 10 10 11 12 11 11 11 12 11 10 9 9 9 7 9 10 10 9 9 9 9 8 11 13 15 15 12 14 13 4 8 11 15
8 8 5 18 10 4 14 11 14 15 8 10 9 15 8 10 6 8 11 8 5 10 20 21 22 23 21 20 21 18 15 14 16 17 16 16 17 17 17 17 18 19 18 16 16 21 20 22 18 16 18 17 16 17 20 17 15 8 8 8 6 5 10 7 5 4 7 7 10 9 7 9 10 10 8 8 6 6 8 9 8 7 9 8 10 10 11 14 15 14 12 12 12 14 11 12 11
7 9 11 16 9 7 8 9 13 11 9 4 7 9 11 8 7 11 12 9 7 5 14 10 16 26 28 25 17 19 21 20 16 10 12 16 17 13 15 17 19 18 17 17 17 20 20 22 20 19 19 20 19 18 17 13 9 8 8 10 7 8 7 5 6 6 9 9 9 7 9 7 8 8 8 7 7 8 7 7 8 8 8 6 8 9 10 15 16 16 18 18 14 18 14 13 12
9 8 15 15 10 9 8 5 12 16 13 3 9 7 10 11 11 10 14 10 13 8 9 16 15 12 8 9 17 16 13 10 15 20 17 16 16 16 15 16 17 17 16 17 16 19 21 20 20 18 16 16 18 19 18 15 15 15 14 15 14 11 12 14 16 15 13 13 14 8 4 7 7 6 7 7 7 7 7 6 7 10 7 7 7 8 6 11 12 14 17 17 14 11 18 13 13
9 14 14 14 8 6 5 8 7 4 5 9 5 5 11 12 5 5 10 11 16 16 13 4 8 7 8 13 14 15 14 11 14 17 18 19 17 17 14 14 15 14 16 18 12 18 22 23 22 21 19 18 16 16 16 15 14 14 16 16 16 15 16 13 6 6 8 7 5 7 6 3 5 8 7 7 8 7 7 6 7 7 8 8 6 6 8 9 11 12 7 13 13 12 11 14 13
15 8 5 3 4 5 7 6 6 11 7 8 7 11 9 6 13 8 10 21 18 21 17 15 15 7 11 12 6 9 12 11 15 12 13 15 16 18 17 16 17 20 22 17 17 11 19 25 26 24 19 16 15 16 16 15 16 13 11 9 9 10 10 11 8 6 6 6 6 6 6 7 7 8 9 8 9 9 8 7 7 8 9 9 8 8 9 8 8 10 10 10 12 12 12 15 11
13 8 8 7 9 8 7 6 5 6 3 13 9 2 7 5 12 11 7 16 15 17 14 18 19 20 20 20 18 17 17 14 12 12 14 17 19 18 20 20 18 17 18 24 20 15 15 15 16 20 21 19 16 16 17 15 12 12 12 10 9 4 6 7 7 7 8 8 6 4 7 8 7 7 8 9 8 8 8 9 8 9 9 9 8 7 8 11 13 12 11 10 11 10 10 9 14
9 10 5 5 2 4 8 6 7 6 9 7 8 3 7 8 14 15 11 15 13 12 13 16 20 25 25 26 24 21 19 18 17 15 13 13 13 14 14 17 16 18 16 25 24 17 16 19 19 15 16 17 16 15 15 13 9 10 11 9 9 9 8 7 8 10 10 9 11 8 7 9 9 8 8 7 8 9 8 8 8 8 7 8 8 8 8 9 10 9 10 9 9 9 6 10 14
4 6 5 5 3 3 5 7 6 9 6 9 9 3 7 6 11 11 12 9 5 6 10 15 20 24 26 26 22 20 17 17 18 19 17 13 10 13 15 16 14 5 7 10 14 17 22 22 22 21 13 7 7 11 11 12 8 9 11 10 10 11 10 11 11 11 10 10 12 11 10 12 10 11 10 8 9 9 8 7 7 6 7 7 9 7 9 10 9 10 9 7 8 10 9 8 6
9 7 10 4 12 8 7 8 10 7 10 10 9 3 9 6 4 10 7 5 10 11 11 15 21 22 22 19 18 19 17 16 16 16 15 12 12 11 9 10 8 6 10 12 12 13 16 16 24 23 20 16 3 5 8 8 8 8 6 8 10 11 12 13 15 16 15 13 12 13 11 9 9 9 10 9 10 10 10 9 6 6 9 7 8 8 7 9 8 9 9 9 8 6 7 8 7
8 11 12 12 11 7 13 7 11 7 11 8 4 3 8 12 4 3 8 17 18 17 16 18 18 17 17 18 16 15 12 12 13 12 13 12 15 15 12 10 10 10 10 7 8 10 15 17 17 15 15 12 8 10 10 10 9 8 8 7 7 10 10 12 13 14 14 15 13 12 11 11 9 9 11 11 9 10 11 9 8 8 8 7 7 8 7 9 9 9 9 7 8 8 10 9 8
8 8 9 10 9 8 10 7 7 7 12 11 6 4 7 4 8 10 14 16 19 19 18 16 17 15 14 12 11 11 11 10 8 6 6 8 10 11 12 12 12 10 7 3 3 6 7 10 12 16 14 10 7 9 13 13 13 12 10 10 8 9 10 11 13 15 14 14 13 12 11 11 11 12 13 12 11 11 11 11 10 9 8 7 7 8 9 9 10 11 10 9 8 8 7 7 7
13 10 16 16 14 17 13 10 12 13 14 9 3 6 14 11 6 4 16 17 17 14 15 12 13 14 15 16 15 13 10 9 9 10 9 8 8 4 5 7 8 6 5 2 4 1 6 9 9 10 14 14 12 11 13 17 17 15 13 12 11 9 10 10 12 13 13 12 11 11 10 9 12 11 13 11 11 12 11 11 10 10 9 8 7 7 9 9 9 10 9 9 8 8 8 8 6
6 8 14 12 10 14 8 13 10 5 5 5 7 9 2 15 8 9 9 17 17 14 14 17 17 14 15 17 18 17 14 13 12 13 12 9 5 6 9 10 9 9 5 6 5 6 7 3 5 7 9 15 17 19 18 18 16 13 10 11 13 9 9 8 8 10 11 9 9 6 9 10 11 12 11 12 11 13 13 12 10 10 10 9 9 8 8 9 8 10 7 8 8 7 9 8 8
11 8 7 15 14 14 8 5 3 6 7 11 9 6 5 4 8 14 12 18 15 15 16 19 18 16 17 15 14 13 13 14 12 11 12 11 9 5 5 5 7 6 6 8 8 7 4 8 9 9 9 10 10 10 12 13 11 9 8 11 12 7 7 9 10 10 11 11 11 9 11 13 11 12 11 11 11 10 12 11 11 10 10 10 9 8 8 7 7 8 9 7 7 5 7 7 6
11 12 16 6 6 11 17 15 6 8 11 15 7 13 10 9 14 8 13 18 15 18 16 15 16 17 20 17 17 16 16 14 13 12 9 7 8 11 7 5 6 5 2 6 8 9 9 6 8 11 11 8 11 8 9 11 14 14 15 16 17 20 18 13 7 11 14 18 11 11 6 7 12 10 11 9 10 10 9 10 10 9 9 10 10 8 8 8 7 7 8 8 8 7 7 5 5
17 14 7 14 12 11 8 14 7 7 10 11 5 2 7 6 7 5 10 15 14 16 17 19 20 20 18 17 19 20 20 19 18 17 16 14 12 10 9 7 7 7 2 3 6 7 8 5 7 7 7 8 4 4 10 11 11 13 15 20 17 14 13 12 10 13 18 15 9 9 15 15 12 11 12 11 11 10 10 9 10 9 9 10 9 9 8 9 8 8 6 8 7 8 9 7 6
5 6 6 6 13 8 8 22 14 15 10 6 5 5 11 5 4 3 6 11 12 16 18 19 20 18 17 17 16 19 18 19 20 20 20 20 18 18 17 14 12 10 8 9 7 6 6 4 3 4 3 5 2 2 9 12 13 12 9 10 12 14 14 12 13 13 16 12 10 10 14 13 15 12 12 11 12 10 10 10 9 10 9 9 9 8 9 8 9 9 8 8 7 8 9 9 7
8 8 7 6 12 8 11 7 14 16 17 13 14 8 9 6 5 6 8 7 11 14 18 16 16 17 18 20 20 18 19 18 19 19 20 20 19 19 19 18 18 17 12 10 10 8 10 8 6 6 5 8 8 7 8 9 8 8 11 11 11 9 10 11 10 11 14 11 10 11 16 17 13 12 12 13 12 11 10 10 10 9 9 8 9 8 7 9 9 8 8 8 8 9 10 8 8
13 17 15 15 8 9 8 14 7 10 13 14 14 12 6 8 5 9 9 8 14 14 15 16 16 17 18 18 17 16 17 16 15 16 18 19 19 19 18 19 18 19 19 18 14 8 9 10 8 4 4 6 7 5 4 7 8 8 10 10 10 10 12 9 11 10 12 13 14 14 14 14 13 12 13 14 13 10 9 10 9 8 8 9 9 9 7 9 10 9 8 8 9 9 9 8 7
Wind_Speed
0 0 0 1 2 1 2 1 0 2 1 5 2 1 5 3 6 3 6 4 0 2 2 4 6 4 3 4 12 10 8 4 1 4 2 0 6 12 12 15 13 12 13 10 9 8 9 13 15 15 15 16 17 17 17 18 18 17 18 16 17 17 17 18 18 18 19 18 18 18 20 20 19 18 17 17 17 17 17 17 17 17 17 18 18 18 17 15 15 14 14 14 12 12 13 12 12
0 1 1 2 1 1 1 1 1 2 1 4 7 1 6 4 2 4 4 3 3 1 1 5 9 11 13 12 10 9 13 10 8 8 7 10 14 13 14 13 13 16 12 11 9 9 9 11 15 16 16 17 17 18 19 19 17 18 19 18 17 17 17 17 18 18 18 18 18 18 19 19 18 18 17 16 16 15 15 15 16 17 17 17 18 17 17 16 14 13 12 11 10 11 11 12 11
1 3 4 3 2 2 0 1 0 1 2 4 7 7 3 6 3 3 5 2 4 4 4 8 6 3 3 4 10 5 3 10 14 11 7 5 13 7 13 13 12 13 13 10 10 11 9 11 16 17 17 17 18 18 19 18 18 17 17 17 17 17 17 17 18 18 18 17 17 18 17 18 18 18 17 16 14 14 14 14 15 16 17 17 16 16 16 16 14 11 10 9 9 10 11 11 11
3 2 3 1 1 1 2 1 2 4 2 6 6 5 3 4 5 6 5 4 4 0 2 3 5 4 6 13 7 12 7 7 9 9 5 8 10 11 11 12 12 12 13 11 12 12 10 14 18 17 18 18 18 19 19 19 18 18 17 17 17 17 17 16 17 17 17 17 17 17 16 17 17 17 17 15 12 15 15 12 12 15 15 15 15 14 15 15 14 11 9 9 9 11 11 11 11
2 1 1 2 3 1 1 2 3 4 6 5 4 7 5 3 5 5 3 4 3 1 3 4 5 4 8 7 2 3 6 14 14 11 9 10 14 15 16 17 16 16 14 13 12 11 11 19 17 17 17 19 19 19 18 17 17 18 17 16 17 17 18 18 18 17 17 17 16 16 16 16 17 17 17 14 15 17 15 10 13 15 14 14 14 13 13 14 14 11 9 9 10 10 11 11 11
3 2 1 3 1 1 1 1 3 4 4 2 2 5 10 8 4 5 4 4 3 2 6 4 3 2 6 5 5 3 2 5 11 9 13 11 16 18 19 16 13 12 12 10 9 7 9 15 15 15 16 18 19 19 18 19 18 18 18 17 17 18 17 17 17 17 17 17 16 17 16 16 16 16 15 15 17 16 14 13 12 13 13 13 13 14 15 13 12 10 8 8 9 9 9 10 10
1 3 1 1 1 1 4 3 6 3 9 5 7 9 11 13 6 0 3 1 3 2 3 7 14 12 10 2 9 7 7 15 8 11 11 16 16 15 11 8 9 10 11 9 9 9 12 16 15 16 17 18 18 19 19 19 19 18 18 18 17 18 18 17 16 17 18 17 17 17 16 16 15 15 15 16 17 15 14 12 12 12 12 13 14 14 13 12 10 9 8 7 8 8 9 9 9
0 2 1 2 1 1 2 3 5 4 6 10 6 8 10 13 14 2 2 1 1 2 3 9 7 12 3 7 7 7 6 5 14 12 13 15 10 7 8 10 12 11 12 11 11 11 18 19 18 16 17 18 19 20 20 19 19 17 18 17 17 17 18 18 17 16 16 17 17 16 16 15 15 15 15 16 16 15 13 12 12 13 13 15 14 14 12 11 10 9 8 7 7 8 8 9 9
1 2 1 4 1 0 2 4 6 3 7 5 12 11 14 14 8 2 1 1 1 3 5 5 7 11 3 14 8 2 5 8 13 13 13 9 8 8 7 11 13 11 11 11 11 11 12 17 17 18 18 19 19 19 19 19 18 17 18 17 15 16 16 17 17 15 15 15 16 16 16 15 15 14 14 14 14 14 14 13 13 13 14 14 14 13 12 11 10 9 9 8 7 7 8 9 8
1 1 1 2 2 3 2 7 1 5 4 5 10 13 10 5 4 0 0 2 0 6 4 7 9 14 12 16 9 3 7 7 11 9 7 7 9 9 9 9 13 15 12 11 10 11 11 19 18 18 18 18 18 18 18 18 17 17 16 15 14 15 15 15 14 14 14 14 14 14 15 15 15 14 14 14 14 13 13 13 13 13 14 14 13 12 11 10 10 10 9 8 7 7 8 8 8
1 0 1 1 1 1 4 6 5 8 7 6 10 16 12 5 1 1 2 3 3 8 5 16 13 12 9 5 2 3 2 4 11 8 6 8 8 8 10 8 10 13 12 10 9 9 10 13 20 17 18 18 18 17 17 16 15 15 14 14 14 14 14 14 14 13 13 13 13 14 15 15 15 14 14 14 13 13 13 13 13 13 13 13 12 12 11 10 9 9 8 7 7 7 7 8 10
1 0 1 1 3 4 4 2 5 8 10 9 5 4 1 1 1 1 2 2 2 10 8 3 6 14 11 5 3 3 2 2 5 6 6 7 6 7 13 9 9 8 12 10 9 8 9 11 12 17 18 18 18 18 16 16 15 15 14 14 14 13 14 14 14 14 13 12 13 13 13 14 15 14 12 12 12 13 13 14 13 13 12 12 11 11 10 9 9 8 7 7 7 7 8 9 10
1 0 1 1 2 1 3 5 7 6 6 6 2 0 0 2 0 3 1 0 1 8 3 5 19 3 6 5 3 1 5 2 4 6 7 6 6 5 7 10 8 9 10 11 11 11 11 9 10 12 13 19 17 16 16 16 16 15 15 14 14 14 14 14 14 13 13 12 12 13 13 13 14 14 14 13 14 13 14 13 13 13 12 11 11 10 9 9 8 8 7 7 7 7 8 9 9
3 4 4 2 0 2 4 6 4 4 5 4 3 3 1 2 3 4 3 6 4 5 5 13 8 15 9 6 3 4 5 5 5 7 6 4 4 6 8 9 10 9 9 9 10 10 9 9 9 9 10 10 9 12 15 15 15 14 14 13 13 13 13 13 13 12 12 12 12 13 13 13 14 15 15 13 13 13 12 13 13 12 12 10 10 9 9 8 8 7 6 6 5 5 7 7 8
4 1 1 2 3 1 2 3 5 4 5 1 3 1 1 3 1 4 5 3 5 6 7 5 11 11 6 10 5 9 9 9 7 7 6 4 5 6 7 8 9 9 7 7 8 8 8 8 7 7 7 7 8 6 6 10 13 13 12 12 12 12 12 12 12 12 13 13 13 14 15 15 15 16 15 14 13 12 13 13 11 11 11 10 10 9 8 8 8 7 5 5 4 5 5 6 6
5 2 1 1 4 2 5 2 3 2 6 1 3 2 1 2 3 1 2 3 3 3 2 3 3 2 12 12 14 15 14 11 9 9 8 8 7 6 6 7 7 7 6 5 6 6 6 7 7 6 7 7 6 6 6 7 10 11 11 13 13 12 12 12 12 12 13 13 14 13 13 12 12 12 17 13 14 12 12 9 11 11 11 10 9 9 8 8 7 7 6 4 4 4 5 5 5
0 2 1 3 7 2 5 3 1 1 3 3 1 5 1 1 3 0 5 7 8 4 8 8 3 4 18 5 12 15 13 11 10 11 10 8 7 6 5 5 5 4 4 4 4 5 5 7 7 6 7 7 7 7 6 7 8 12 11 12 13 12 11 12 13 13 12 12 12 11 10 6 5 6 9 8 13 8 10 11 12 11 10 10 9 8 8 8 7 6 6 4 3 4 3 3 4
1 2 5 6 4 4 4 3 1 3 1 5 4 1 5 4 6 3 6 9 10 10 10 5 14 13 8 9 13 14 12 14 13 15 12 10 7 7 6 5 6 5 5 4 3 5 6 6 8 8 7 8 7 6 4 4 5 8 5 6 7 9 10 10 9 7 9 6 10 9 5 5 4 5 6 9 6 8 8 11 11 11 10 9 8 8 7 7 6 5 5 4 2 2 2 2 3
4 2 4 9 5 5 2 1 8 3 0 2 1 3 4 1 2 1 5 1 11 10 9 10 12 11 13 12 12 12 11 10 13 14 15 14 10 10 7 6 5 5 5 4 5 6 6 6 6 7 7 7 6 4 4 4 5 5 5 5 5 8 8 8 6 7 6 7 6 5 5 4 4 5 5 8 7 10 9 10 12 11 10 9 8 7 7 7 6 4 4 3 3 2 2 2 4
5 5 5 9 3 3 5 3 6 6 3 2 2 1 4 4 1 1 3 4 5 11 9 7 12 12 11 12 12 12 11 11 10 10 12 11 9 8 8 6 5 5 6 5 6 6 6 6 6 6 7 6 6 5 4 4 5 4 5 4 4 5 5 5 5 6 5 5 6 5 5 4 3 4 10 14 12 6 7 9 11 11 10 9 8 5 6 7 6 4 3 3 3 2 1 2 3
3 4 7 4 4 4 8 1 5 9 2 1 1 1 5 5 4 3 5 7 1 2 8 14 15 15 14 14 13 11 12 11 10 9 8 8 7 6 5 4 6 7 6 5 6 7 7 5 5 5 4 4 5 5 5 4 5 5 4 4 4 4 4 5 4 4 4 4 5 5 5 4 3 4 4 5 4 5 4 4 5 4 3 3 5 3 3 3 4 2 1 1 1 1 2 2 2
2 5 6 5 5 3 10 5 7 5 3 2 3 6 1 4 4 1 2 5 5 8 7 13 19 19 19 16 14 12 13 13 12 11 10 9 8 7 6 6 7 7 7 7 7 7 6 4 5 5 5 4 4 5 5 6 7 5 5 5 5 4 5 4 4 5 4 5 4 4 5 5 4 4 4 5 5 5 5 4 5 5 4 4 3 4 3 3 3 2 2 1 2 1 1 2 2
7 6 4 7 6 6 6 5 3 3 0 2 1 1 1 3 2 5 3 1 5 3 9 13 16 17 17 15 14 13 14 14 13 11 11 10 8 11 12 9 7 6 4 5 5 5 5 5 6 6 6 6 6 5 5 5 5 5 5 5 6 5 5 5 5 5 5 5 4 4 6 5 5 4 5 5 6 5 5 5 5 5 5 4 4 4 3 2 3 3 2 3 2 1 2 2 1
7 9 4 8 9 10 12 2 5 5 8 4 3 1 0 0 1 3 3 3 4 9 11 13 14 13 14 14 13 14 14 13 12 12 12 12 12 13 10 6 4 6 7 9 8 7 6 7 7 7 7 7 6 7 7 6 6 7 6 7 6 6 7 6 6 5 5 6 5 4 5 6 6 5 5 6 6 5 5 5 5 4 4 4 4 4 4 3 2 2 2 2 2 2 2 0 1
8 10 9 7 5 7 9 6 6 4 5 4 4 4 4 4 2 1 4 2 7 12 12 13 14 14 11 13 12 11 10 10 10 9 8 6 6 3 1 4 6 8 9 9 7 7 6 6 7 8 6 6 5 7 7 6 6 7 7 7 7 6 6 7 7 7 6 5 5 5 5 6 6 6 6 6 5 5 5 5 5 5 5 4 4 4 4 4 3 2 3 3 2 3 1 2 2
4 10 6 5 5 6 6 4 6 9 5 4 4 4 4 6 2 3 3 5 8 11 10 12 13 13 11 11 10 10 10 11 12 11 7 5 5 6 6 6 7 7 7 7 7 6 6 7 7 6 5 3 4 5 6 7 7 7 6 6 6 6 6 6 7 7 6 6 6 5 5 6 6 7 6 6 6 5 5 4 4 4 5 4 4 5 4 4 5 3 3 2 3 1 2 2 4
4 6 6 9 8 5 4 5 2 3 2 4 4 5 3 2 3 4 5 7 10 11 11 10 13 13 12 11 10 9 12 13 14 11 8 6 7 7 6 4 6 8 5 7 7 6 7 8 7 7 6 1 2 5 6 6 4 4 4 4 5 6 6 6 5 5 6 6 5 5 5 5 6 6 6 6 5 5 5 5 4 3 4 5 5 4 4 4 4 4 5 5 3 4 4 3 3
6 6 7 6 7 6 6 3 5 1 2 4 4 3 3 1 4 7 5 8 13 14 13 11 9 11 10 10 11 10 11 12 11 12 12 9 9 9 9 8 8 6 7 7 6 7 8 8 9 10 10 8 8 7 6 5 4 4 5 6 6 5 6 6 5 4 5 5 5 5 5 5 5 5 5 5 6 6 5 5 4 4 4 4 4 4 5 4 4 3 1 4 5 5 4 3 2
5 5 4 6 4 4 2 5 4 3 1 3 3 2 3 2 5 6 6 11 12 14 13 11 9 8 7 9 9 10 12 13 13 11 12 12 11 9 12 9 10 7 3 6 7 8 10 9 9 8 8 9 9 9 7 5 5 5 6 5 4 4 4 6 6 6 5 5 5 5 5 5 4 5 5 6 6 5 4 4 4 4 4 5 2 5 5 4 2 5 4 5 6 4 3 3 4
4 1 4 3 4 5 8 2 1 1 3 5 4 4 8 6 8 8 4 11 9 12 11 9 8 8 7 7 9 8 7 11 12 11 11 10 9 9 11 9 9 8 7 7 8 8 7 5 6 7 9 11 10 5 4 2 3 4 3 5 5 6 5 5 5 5 5 5 5 5 5 5 5 4 5 5 5 5 5 6 5 4 3 2 1 3 6 5 6 5 4 4 5 3 3 3 4
0 4 2 1 3 6 2 1 1 2 3 7 5 4 10 7 10 8 4 13 14 12 11 10 8 8 7 6 8 9 8 9 13 15 13 11 10 9 10 9 8 7 7 7 9 8 7 7 6 7 9 9 8 3 5 1 1 1 2 4 5 5 3 5 5 5 5 5 5 5 5 5 5 5 5 6 5 5 5 5 4 5 4 2 0 3 6 6 8 5 2 5 5 2 4 3 4
2 1 3 3 3 9 3 3 3 7 2 6 5 5 11 8 8 9 4 12 16 14 11 10 8 9 8 8 7 8 8 7 10 14 14 13 11 9 10 11 8 8 9 8 7 8 7 6 7 8 9 8 3 6 2 1 4 3 3 5 5 3 2 2 4 5 5 5 5 5 5 5 5 5 5 5 6 4 4 5 4 3 3 2 2 3 4 8 8 3 3 3 6 3 3 4 5
3 4 3 2 2 5 8 5 7 9 2 2 9 7 2 4 10 9 4 12 15 13 11 8 10 9 9 7 6 4 5 4 6 10 11 11 10 8 9 9 9 10 8 8 8 7 6 7 7 5 5 4 8 7 6 5 2 6 5 6 6 6 5 4 3 4 5 5 5 6 6 6 6 6 5 5 5 5 4 4 4 2 2 3 2 5 6 9 8 5 2 1 4 4 4 5 4
5 2 2 3 3 1 4 8 3 5 7 4 8 7 8 4 4 4 4 10 11 15 13 12 11 8 7 5 5 7 7 8 9 9 9 10 9 8 9 10 10 9 7 8 8 9 8 6 6 8 8 10 9 8 5 5 5 8 7 6 7 7 6 4 4 5 5 5 5 6 6 6 6 5 5 5 5 4 4 5 4 3 2 3 4 5 6 10 8 7 6 2 4 5 4 6 5
4 1 2 6 2 3 7 3 3 5 9 10 8 9 11 9 6 5 9 8 16 16 15 14 10 7 7 8 8 9 8 8 7 5 7 9 10 10 10 11 10 9 7 10 9 8 8 8 8 9 9 8 8 10 11 10 9 7 5 6 6 6 6 5 6 6 6 5 6 6 5 5 5 5 5 5 5 4 4 5 4 4 3 3 5 5 6 9 8 6 5 4 1 2 5 5 6
2 2 3 2 3 5 4 7 10 7 7 10 10 12 11 7 5 8 8 4 13 10 10 8 7 8 9 9 7 6 6 5 5 6 7 9 10 10 9 9 9 8 9 10 11 9 9 10 9 8 7 9 6 8 7 7 7 7 7 4 5 5 5 6 6 7 6 6 6 6 6 5 5 5 6 6 5 5 5 6 6 5 4 4 5 6 4 9 9 7 5 6 4 3 4 5 5
4 4 3 4 5 5 5 9 9 7 9 9 12 9 6 3 5 6 3 7 5 12 12 11 11 11 9 6 6 6 6 8 8 8 9 12 12 11 11 10 10 10 11 12 11 11 10 10 11 11 8 9 9 9 8 8 7 7 5 7 6 7 8 8 7 7 7 7 7 6 6 6 5 5 5 6 6 6 5 5 5 5 4 4 5 6 4 9 7 7 5 5 8 6 3 4 5
5 5 5 8 5 8 6 9 7 5 6 4 4 6 7 5 6 3 1 8 7 6 8 7 7 6 7 8 8 9 5 1 4 5 7 10 11 12 11 11 13 14 11 12 13 13 11 12 13 11 9 10 10 9 9 8 8 9 8 8 7 8 8 9 8 7 7 6 7 6 6 6 6 5 5 5 4 5 5 5 5 6 5 5 5 4 6 10 9 7 6 5 1 6 5 5 6
4 3 5 6 6 4 9 7 2 0 6 5 4 5 4 7 5 3 4 1 5 11 13 14 12 9 8 9 9 6 4 5 4 4 6 10 13 13 11 11 11 14 14 13 12 12 13 11 11 11 10 10 10 8 8 8 7 7 9 7 10 8 6 4 4 4 5 6 6 6 6 6 6 5 5 5 5 4 4 5 4 4 5 5 5 5 7 8 8 8 8 7 7 1 3 4 7
3 4 2 8 4 2 6 5 8 9 2 4 6 9 5 6 4 5 3 5 1 7 13 13 13 14 14 12 11 10 9 9 11 11 11 10 11 10 10 10 10 11 11 10 10 12 11 11 10 10 11 9 9 10 11 10 8 3 5 5 3 2 2 2 3 2 3 4 5 4 3 4 5 5 5 5 3 3 4 5 4 3 5 4 6 6 7 8 9 8 6 5 7 7 3 5 5
4 5 6 8 5 3 4 4 7 5 6 2 4 4 4 4 4 5 7 3 2 1 8 6 8 13 16 14 9 9 13 12 9 5 6 6 8 8 10 10 11 11 10 10 10 10 9 12 11 12 11 11 10 10 10 6 5 5 5 6 4 5 3 2 3 3 4 4 4 3 4 3 4 5 4 4 4 4 3 3 4 4 4 4 4 5 6 8 9 9 9 7 7 8 7 5 7
4 5 10 10 7 6 4 1 7 7 4 1 5 2 3 5 6 6 7 4 7 4 3 5 8 6 2 2 7 8 2 6 7 6 9 9 10 10 10 10 10 8 7 6 7 10 12 12 12 10 9 9 9 11 10 7 6 7 7 7 7 5 6 7 8 7 6 6 6 3 2 3 3 3 4 4 4 4 4 4 4 4 3 4 4 4 4 6 7 8 9 8 8 6 10 7 6
4 5 10 10 6 3 2 2 4 1 0 3 1 2 1 5 3 2 5 8 11 9 8 1 6 4 3 4 3 2 6 6 7 8 7 10 10 11 9 9 9 9 11 7 8 8 12 12 11 12 11 10 9 9 9 7 7 7 8 9 8 7 8 5 3 4 4 3 2 4 3 3 3 4 4 5 4 4 4 4 4 4 4 4 4 3 4 5 6 7 3 5 7 7 6 8 7
4 3 4 3 1 3 4 2 3 3 2 4 4 5 3 1 5 4 6 14 11 12 9 10 10 4 5 4 3 6 7 6 7 8 9 9 10 12 12 11 11 12 10 7 6 4 7 8 8 11 9 9 9 8 9 9 9 7 6 5 5 5 6 6 4 3 4 3 3 4 4 4 4 5 5 5 6 6 5 4 5 5 5 5 4 5 5 4 5 6 6 5 7 7 7 8 6
4 5 6 4 4 4 1 0 2 2 1 6 4 1 2 1 4 6 5 10 10 9 9 12 13 13 13 13 11 10 8 6 6 7 8 9 10 11 11 10 9 8 10 11 10 7 6 4 4 4 6 7 7 9 10 8 7 8 7 6 5 3 4 4 4 4 5 4 3 2 4 5 4 5 5 6 5 5 5 5 5 6 6 5 4 4 4 5 6 7 6 6 6 6 5 5 7
5 7 4 1 1 0 1 2 4 1 4 1 3 1 2 2 8 8 5 9 7 5 8 11 12 12 11 11 12 12 12 11 10 9 6 5 6 6 5 6 4 1 7 4 8 8 6 7 11 9 6 4 1 3 5 6 6 7 7 6 6 5 4 4 5 6 6 5 5 5 4 5 5 5 4 4 5 5 5 5 5 6 5 5 4 4 4 5 5 5 7 6 6 6 3 5 8
2 4 1 0 1 2 2 4 3 3 1 4 5 1 3 1 5 6 5 1 1 1 5 8 11 12 12 12 12 10 10 10 8 9 8 6 4 6 8 8 5 0 1 3 6 9 10 8 5 11 8 4 3 2 1 4 4 6 7 7 7 7 6 6 6 6 6 6 7 6 6 7 6 6 5 5 6 5 5 5 4 4 4 4 4 4 5 6 6 6 5 5 5 6 5 5 3
6 2 3 1 6 4 3 3 5 1 2 5 6 2 5 2 1 5 4 3 4 5 7 10 14 13 12 10 10 11 10 10 9 8 8 8 8 5 4 6 5 5 5 3 1 1 7 9 9 3 7 10 2 3 3 3 4 4 5 6 7 7 8 7 9 9 9 8 8 8 6 5 5 5 6 5 6 6 5 5 3 4 4 4 5 5 5 5 5 5 5 6 5 4 4 5 4
5 7 7 5 3 2 3 3 3 1 2 3 2 1 4 6 1 3 3 9 11 9 8 8 8 8 8 9 9 7 5 4 5 7 8 7 9 10 8 7 7 7 6 2 1 2 4 3 12 10 10 9 6 6 7 5 4 5 5 5 5 6 6 7 8 8 8 8 7 7 6 6 5 5 5 6 5 7 6 6 5 5 5 4 4 4 4 5 5 5 5 5 5 5 6 5 5
5 4 5 4 2 1 1 1 0 2 5 6 2 3 3 1 3 7 7 9 10 10 9 9 9 8 8 8 7 7 6 5 4 3 2 1 4 5 6 7 7 5 3 2 2 0 3 3 5 11 9 7 5 6 8 8 8 8 7 6 5 6 6 6 6 8 8 7 7 7 7 6 6 6 7 6 6 6 5 6 6 5 5 4 4 5 5 5 5 6 5 6 5 5 4 5 5
7 5 7 7 6 3 2 2 3 5 6 4 1 1 4 5 2 1 5 7 8 8 8 7 9 9 9 8 9 8 6 6 6 6 5 5 5 3 1 2 1 3 3 2 3 1 1 2 1 3 7 8 8 7 8 10 9 8 6 5 5 2 0 2 5 6 7 6 6 6 5 4 6 6 7 6 6 6 6 6 5 5 5 4 4 5 5 5 5 5 5 6 5 5 5 5 4
1 3 7 6 4 7 1 5 4 2 0 1 3 1 0 7 4 4 4 4 8 7 8 10 10 9 8 10 10 10 8 7 6 7 7 5 3 4 6 6 5 5 3 3 3 3 4 2 1 1 4 6 7 8 6 8 6 3 3 5 3 1 1 3 4 4 2 3 4 3 1 1 5 6 5 6 6 7 7 7 6 6 6 5 5 5 5 5 5 6 5 4 5 3 5 4 4
4 4 2 7 7 8 2 2 1 3 3 2 2 2 1 0 4 7 7 10 8 7 9 12 12 9 10 8 7 7 7 8 7 7 7 8 6 4 3 3 4 4 3 4 4 2 2 5 6 3 2 4 5 6 8 6 4 5 5 7 7 5 5 5 5 2 1 4 6 3 4 4 3 6 6 6 7 7 8 7 6 6 6 6 5 5 5 4 4 5 5 4 4 3 4 4 3
4 2 8 1 4 5 6 5 1 2 4 4 2 7 5 4 3 2 8 10 8 10 10 9 8 8 11 10 9 10 10 9 9 8 6 5 5 5 2 1 2 1 2 3 4 3 2 1 5 2 1 3 5 1 6 5 7 7 8 10 11 13 11 8 3 5 6 5 2 1 2 2 5 3 6 5 6 6 6 6 6 5 6 6 6 5 5 4 4 5 5 5 4 4 4 3 3
9 7 3 4 1 1 3 4 1 1 2 2 2 0 0 2 2 0 6 8 8 9 9 11 12 11 11 10 11 11 11 11 11 10 10 9 7 5 5 5 4 5 1 2 3 3 2 2 3 3 1 2 1 1 6 6 7 7 7 8 7 7 7 5 6 7 9 9 6 3 1 3 3 4 6 6 6 5 6 6 6 5 5 6 5 5 5 5 4 4 4 5 3 4 5 4 3
1 3 2 1 5 3 2 6 5 6 4 2 1 2 2 0 0 1 3 7 8 9 11 12 12 11 9 10 8 10 9 9 9 10 10 11 11 12 11 9 8 5 4 5 4 4 4 2 1 1 1 3 2 0 4 6 7 6 5 6 7 6 6 6 8 8 7 7 6 4 2 4 9 5 6 7 7 6 6 6 6 6 5 5 6 5 5 5 5 5 4 5 4 4 5 5 3
2 1 0 0 2 3 4 1 5 5 5 5 4 0 2 1 2 2 3 4 7 9 10 8 9 10 10 8 7 7 9 9 8 9 10 11 11 11 11 11 11 11 8 6 6 5 6 5 3 2 3 4 5 5 5 6 5 4 7 7 7 6 7 6 6 6 8 7 7 5 7 9 7 6 7 7 7 6 6 6 6 6 6 5 5 5 4 5 5 5 4 5 4 5 5 4 4
7 8 7 8 4 2 4 6 3 3 3 3 5 2 1 3 0 5 4 5 8 8 9 9 10 10 8 6 7 8 9 10 9 10 10 10 11 12 11 11 11 11 12 12 9 5 5 5 5 3 0 0 2 3 3 5 5 5 6 7 7 7 8 6 6 5 7 6 8 7 6 8 7 6 7 8 7 6 5 6 5 5 5 5 5 5 4 5 6 5 4 4 5 5 5 4 4
Wind_Direction
246 299 173 111 99 103 62 7 87 302 65 257 294 244 261 237 241 309 270 253 121 264 252 350 14 12 117 162 121 95 26 92 1 134 189 130 57 75 90 105 111 111 113 117 118 120 127 130 131 131 131 129 126 125 124 125 126 125 123 120 120 120 119 116 115 113 113 112 112 113 113 112 111 109 109 110 109 110 107 106 103 99 100 97 93 93 95 97 96 94 101 100 90 89 85 85 87
151 27 51 137 91 87 353 139 99 339 25 342 255 163 253 252 239 228 233 175 207 223 92 69 72 81 91 114 120 87 39 44 60 90 85 89 77 70 89 93 111 118 120 121 126 132 138 141 139 137 134 132 129 129 127 129 130 128 126 125 124 123 120 117 117 116 116 115 114 114 114 114 113 111 111 111 107 102 104 108 106 101 97 95 93 94 95 96 93 93 96 95 92 87 82 83 81
33 45 21 62 30 91 227 42 233 179 161 259 281 211 273 297 204 238 229 210 213 233 109 111 98 53 56 52 35 54 113 76 83 85 91 89 82 72 84 99 109 121 127 136 140 145 150 150 145 141 138 135 133 132 133 133 134 131 127 126 126 125 122 121 120 120 118 117 116 116 116 115 114 114 114 111 107 111 108 108 107 106 101 98 95 93 94 95 94 89 82 74 68 66 66 65 66
88 64 110 72 17 27 59 25 109 140 180 210 291 263 192 216 207 201 208 201 233 189 133 42 50 307 90 64 92 81 85 78 103 120 93 69 103 113 114 126 141 141 145 150 152 152 154 152 147 144 141 139 136 136 136 137 134 130 127 129 129 128 127 125 123 123 121 119 119 118 118 117 117 117 118 114 108 107 107 114 113 100 99 99 95 91 90 91 90 87 80 73 66 64 63 61 60
78 44 114 80 107 353 102 199 177 133 214 195 201 285 292 249 222 248 256 249 268 69 71 140 90 21 65 81 32 76 110 79 66 82 107 113 137 142 152 161 161 152 151 152 150 149 150 149 147 144 142 141 139 138 136 134 133 131 131 134 134 133 131 128 126 124 123 121 121 121 120 120 120 120 120 111 106 108 113 109 97 101 100 97 94 94 90 85 81 77 73 68 63 61 60 62 63
77 77 349 85 109 199 40 323 276 244 230 182 274 282 297 278 244 230 263 247 246 201 115 67 118 134 48 40 23 86 156 87 137 114 134 157 159 160 165 159 147 139 139 135 132 133 138 141 142 142 143 142 141 137 135 136 135 138 141 140 137 135 132 129 126 126 125 124 124 125 123 123 123 122 118 111 110 112 116 112 107 108 110 107 101 94 90 84 83 77 65 56 56 57 56 60 64
113 66 22 23 345 82 163 211 255 229 259 197 246 257 263 282 262 241 252 287 271 86 125 122 114 106 87 139 40 6 65 122 117 158 157 164 167 166 144 107 112 120 127 126 127 136 143 143 146 147 147 144 139 137 139 140 141 144 144 141 138 134 132 130 128 130 129 128 126 126 124 124 124 121 115 116 115 118 120 118 114 113 106 102 99 93 88 86 83 79 71 58 55 56 60 61 61
141 107 186 101 255 69 253 231 250 181 276 190 233 237 259 265 272 245 276 136 265 110 100 132 108 91 38 57 102 333 44 140 134 146 146 157 153 110 105 124 127 136 140 142 145 149 151 150 150 149 146 144 141 141 143 144 146 146 144 142 138 135 135 135 135 134 133 130 129 126 126 125 125 122 119 120 121 122 122 118 115 110 105 100 94 91 89 88 86 81 77 70 61 62 63 61 59
13 84 309 74 327 327 321 261 254 216 262 278 279 260 259 247 231 203 262 244 299 66 119 137 123 85 116 80 75 210 47 103 121 136 134 125 123 132 131 140 136 139 144 144 147 151 148 151 149 149 148 147 145 145 147 148 149 147 144 142 140 139 140 141 138 134 132 131 131 130 129 128 127 123 122 125 125 124 122 119 114 108 104 98 95 95 93 89 85 83 79 73 69 67 64 61 55
47 96 237 150 137 260 313 278 246 239 217 233 246 265 260 229 237 75 285 331 138 70 37 57 70 107 119 103 114 101 136 131 119 103 110 137 141 149 145 148 139 142 149 151 150 148 150 152 150 149 148 149 148 149 151 151 151 146 144 142 143 143 142 139 135 133 131 133 134 133 132 131 129 128 128 129 128 125 122 120 114 110 103 98 98 95 91 87 85 82 80 75 69 64 63 58 49
21 11 172 64 345 240 251 273 250 285 272 265 254 249 239 251 259 357 309 248 31 106 103 91 74 103 86 73 52 340 102 146 125 126 147 151 162 156 128 137 145 146 145 147 144 145 150 148 150 149 149 151 153 153 152 150 146 144 143 144 146 143 139 135 135 135 136 135 136 136 135 133 133 132 132 132 129 126 124 120 115 111 103 100 98 94 92 90 87 87 85 77 67 59 55 50 45
30 107 46 128 224 180 241 224 279 281 287 282 251 228 249 348 64 325 298 42 66 129 145 181 139 116 83 117 138 182 125 73 99 131 147 161 157 153 137 138 144 144 139 138 138 141 145 151 150 153 154 156 156 154 150 148 146 147 148 150 147 141 138 139 139 140 140 137 135 136 135 135 135 132 130 129 127 125 125 120 118 110 106 102 98 98 96 94 91 87 82 76 62 51 43 42 42
132 188 95 89 242 146 245 268 266 287 288 281 201 274 151 59 110 218 231 305 97 106 17 129 142 123 119 135 150 68 142 142 148 136 154 157 142 139 122 128 135 133 137 142 150 157 153 150 152 156 161 159 155 151 149 149 152 153 153 151 147 143 142 142 142 142 138 136 138 139 138 136 133 130 129 131 129 127 124 121 121 114 109 105 103 101 101 97 94 90 81 70 62 49 45 43 43
145 180 119 242 268 234 264 268 288 284 288 260 303 309 329 171 228 180 107 49 25 65 118 124 92 96 95 113 148 176 173 169 162 147 149 129 126 134 127 127 134 136 142 148 150 149 146 147 153 154 154 150 147 148 150 152 154 156 153 148 144 142 142 142 142 140 137 137 142 143 142 136 131 130 132 132 132 128 127 127 126 121 114 111 109 108 106 102 97 91 84 72 63 51 48 46 46
195 182 97 180 267 282 241 242 240 206 282 301 268 349 312 297 335 4 73 82 41 112 104 101 148 106 202 160 178 187 183 169 159 149 134 127 130 126 127 131 134 134 136 146 145 144 143 143 141 143 143 139 140 138 145 153 156 156 145 138 140 142 142 141 140 137 134 136 141 147 147 139 135 134 133 132 129 128 131 131 130 124 120 119 116 113 112 108 103 100 89 71 56 51 46 41 47
188 118 114 213 252 208 269 258 253 222 242 216 272 256 81 334 337 65 315 126 113 65 110 152 226 194 164 174 177 168 160 160 158 143 132 126 124 116 118 120 120 124 128 133 135 129 129 138 138 137 137 140 139 141 147 152 153 146 143 143 144 146 143 141 140 137 136 138 141 143 149 147 139 138 137 133 133 132 130 133 130 128 127 125 123 123 117 111 106 101 89 73 55 42 37 31 33
95 123 289 233 271 190 255 198 47 325 258 256 348 52 96 296 312 240 49 67 77 10 59 23 359 54 155 199 143 139 146 149 147 140 129 131 132 127 118 113 113 114 125 125 127 134 131 137 135 137 145 144 146 149 155 157 159 149 146 145 147 146 144 144 142 139 137 140 141 143 141 133 126 131 131 133 136 129 135 134 134 132 130 130 131 128 124 115 110 103 100 88 63 47 27 22 14
102 196 207 250 218 260 221 218 251 294 355 312 14 341 75 25 334 314 65 53 83 67 61 46 34 42 48 70 105 127 141 147 155 144 146 141 144 136 130 125 128 141 138 130 130 139 146 152 153 151 151 154 154 149 144 141 145 143 141 146 150 151 147 142 144 141 138 139 145 142 125 130 121 119 131 134 125 139 140 138 138 137 137 137 133 129 126 120 114 109 108 105 88 59 15 8 5
168 216 173 237 187 232 128 318 317 328 237 247 276 52 42 352 277 335 75 65 96 74 52 68 81 69 74 86 108 128 143 148 156 152 151 150 150 144 136 131 130 133 146 144 144 154 162 158 156 155 156 153 146 134 131 134 137 130 142 146 152 154 157 141 140 144 142 147 138 128 123 118 133 130 129 134 133 142 145 146 145 144 142 141 135 134 129 123 117 112 104 89 64 36 28 357 28
217 185 226 240 215 277 279 238 268 268 229 45 349 358 56 315 289 42 93 117 100 120 120 78 106 117 115 125 134 141 147 152 159 155 149 146 137 130 128 131 142 159 161 162 163 158 165 165 158 154 154 147 134 119 116 124 127 137 146 145 141 143 144 142 148 152 150 137 129 122 120 133 127 132 146 145 144 142 151 154 150 148 146 141 142 134 132 124 118 114 90 65 51 24 3 353 49
259 167 215 233 218 250 266 191 247 265 177 205 271 19 25 328 294 91 155 79 38 174 165 146 151 148 145 150 149 150 149 154 157 150 140 126 102 83 98 134 168 170 165 151 156 162 167 157 144 143 130 126 113 122 133 136 136 139 140 136 130 130 125 146 141 124 128 123 117 120 123 124 127 140 127 125 120 141 143 150 147 133 128 132 133 120 117 114 104 97 65 54 8 299 354 342 16
289 218 226 205 260 271 267 258 264 223 324 79 347 49 302 300 337 106 126 125 201 191 199 153 154 154 152 158 162 155 157 157 159 153 139 119 103 110 148 163 162 152 146 153 163 155 160 141 135 126 117 109 112 124 141 151 149 154 152 146 130 121 129 127 122 125 118 118 127 128 124 125 140 133 119 126 138 145 149 151 145 141 140 147 132 144 125 126 126 136 144 165 258 287 281 292 295
244 277 258 230 223 229 264 261 218 213 55 88 18 284 26 26 292 300 84 144 223 203 152 153 152 157 157 152 154 162 160 160 158 145 131 112 129 172 181 173 150 131 131 153 157 154 142 129 129 126 122 122 127 135 142 154 154 155 156 151 138 130 122 123 118 127 127 129 138 138 132 142 149 148 139 144 152 159 160 159 158 155 154 156 158 147 163 153 157 154 177 201 235 235 254 267 274
215 247 233 243 229 230 252 281 227 203 147 171 197 142 99 27 354 294 353 266 161 122 141 139 147 147 149 153 167 164 163 154 147 143 141 151 170 189 182 142 107 132 152 174 174 159 147 137 136 139 139 143 147 150 155 162 163 161 164 156 144 144 134 132 129 137 142 143 145 144 134 148 154 157 155 157 162 163 170 169 160 154 159 170 174 163 160 164 161 158 187 235 230 245 249 203 206
221 239 232 241 220 225 236 219 215 223 200 196 141 166 213 188 213 254 289 112 125 129 140 142 144 149 159 158 164 158 140 132 126 115 120 145 182 190 110 139 151 164 175 173 157 150 149 135 142 146 143 147 154 160 167 169 168 165 163 155 157 157 146 146 146 144 145 143 142 141 139 145 155 159 164 167 160 169 173 175 166 164 170 176 173 193 169 170 170 181 214 231 212 240 313 54 108
219 222 233 246 238 240 233 241 209 225 220 169 140 193 246 234 173 277 204 175 133 127 134 139 143 150 157 163 160 154 142 130 123 125 135 133 173 171 184 182 176 186 178 152 145 147 127 129 141 139 128 133 154 168 180 178 176 169 162 154 161 155 155 148 145 143 143 140 143 147 146 148 157 161 169 166 160 168 175 180 159 164 176 176 174 188 200 168 176 178 217 235 220 66 57 81 117
247 268 240 242 250 253 264 232 248 204 232 201 171 203 227 274 123 277 272 168 128 129 138 149 151 158 168 164 160 152 145 140 140 137 135 152 173 190 190 186 189 194 157 151 150 136 123 127 123 110 106 102 250 196 193 184 157 149 147 159 167 159 145 133 126 130 132 137 143 140 139 142 144 152 162 162 152 160 172 174 162 149 181 186 185 191 186 185 177 184 195 202 104 94 71 55 93
309 265 286 277 255 250 257 239 256 202 285 161 138 188 223 256 156 224 241 142 146 143 154 158 160 164 170 164 157 155 152 139 134 147 157 167 184 190 189 188 196 194 165 157 137 126 133 136 139 162 160 169 183 184 186 172 156 156 160 170 169 149 134 126 123 125 133 140 141 138 144 141 137 138 148 151 159 170 181 181 159 157 180 187 195 190 192 185 184 187 81 91 120 110 98 73 76
272 281 270 273 338 320 235 210 227 130 261 183 123 42 305 221 223 225 224 158 150 149 160 161 163 165 167 170 162 163 162 148 145 151 173 185 187 183 186 195 185 181 109 117 125 137 148 147 154 163 160 181 191 182 179 162 155 163 174 163 134 111 110 128 135 144 147 146 140 144 147 145 145 140 148 155 164 172 167 169 179 186 182 176 195 192 187 171 148 92 112 89 103 91 94 83 85
296 262 208 318 348 318 264 230 220 161 229 155 101 282 253 247 240 245 205 147 142 150 164 167 169 162 170 181 174 166 158 143 152 161 180 191 185 188 181 188 184 164 143 127 129 145 145 144 158 171 167 186 195 171 121 123 171 170 144 131 121 128 140 136 143 143 143 143 143 147 152 150 149 150 152 154 148 147 167 174 179 184 181 143 302 125 154 162 113 117 120 144 93 98 110 100 100
188 274 43 211 346 272 271 177 168 223 172 152 139 220 275 252 265 255 243 148 153 167 172 174 170 162 168 190 180 175 172 158 156 163 181 184 186 185 178 177 176 151 131 146 156 140 137 164 170 180 180 183 186 83 78 143 273 86 97 92 101 127 135 136 147 140 142 147 147 156 159 152 157 162 164 151 146 157 165 165 180 184 164 153 167 150 134 117 108 120 177 128 88 76 88 69 79
287 10 288 322 168 274 323 282 197 220 328 158 133 224 250 263 255 255 212 155 159 167 176 174 168 171 175 187 189 176 174 169 153 170 178 189 191 178 176 177 167 152 158 151 132 144 156 173 173 178 179 174 107 76 102 94 50 56 43 56 76 64 80 88 154 152 147 148 156 160 162 157 160 167 166 159 147 164 165 167 178 168 143 146 192 107 103 97 98 137 195 118 119 135 104 71 71
332 153 253 241 149 261 357 267 198 202 170 238 169 230 330 293 250 249 202 158 159 162 174 169 177 179 180 190 194 175 158 161 170 169 182 181 194 167 172 168 165 166 157 147 148 144 154 168 163 123 52 80 90 77 53 50 127 101 73 114 129 133 151 185 162 142 142 154 162 165 166 163 167 166 168 165 154 167 174 156 163 152 144 174 158 91 75 90 123 160 180 105 124 142 113 108 96
297 15 212 214 198 274 249 300 312 195 167 237 223 219 236 242 275 297 321 150 156 165 174 179 177 182 179 182 194 181 178 171 180 180 160 176 178 167 167 169 165 162 159 138 136 142 148 139 106 103 108 106 112 97 99 102 104 126 160 159 145 139 151 174 158 154 160 166 170 172 169 167 167 167 158 153 162 179 168 154 152 155 167 179 131 92 81 95 133 162 164 167 148 132 129 122 108
225 341 354 315 304 220 244 305 276 134 197 192 223 222 244 265 295 300 268 197 167 173 176 175 172 170 183 197 195 186 180 178 184 188 152 160 158 161 162 161 156 159 131 129 127 122 114 112 107 112 124 124 113 122 135 144 160 154 140 151 152 148 155 176 167 169 167 171 178 175 172 168 172 166 153 152 158 169 157 151 150 163 172 166 106 89 80 107 135 159 146 123 50 63 129 122 128
208 185 195 196 274 287 272 255 262 172 182 191 193 211 231 264 320 297 338 138 171 161 150 157 168 177 190 200 196 181 181 184 193 190 146 152 152 152 154 150 146 133 125 128 132 131 129 125 122 122 135 134 143 141 159 156 140 143 146 137 147 162 176 183 186 173 162 173 182 173 175 173 175 166 158 158 165 166 167 165 160 160 162 140 114 110 98 122 143 147 142 143 126 90 78 117 117
292 319 326 278 279 270 255 262 271 182 166 186 191 216 223 231 249 278 302 88 106 150 163 178 184 184 192 197 196 188 179 187 192 184 153 151 151 151 148 139 131 127 132 138 145 153 143 134 133 146 156 162 159 161 168 156 152 139 145 165 173 180 186 192 189 181 175 177 176 174 175 173 170 166 161 161 174 172 171 162 156 158 150 133 127 140 135 118 144 137 155 134 141 134 117 128 123
253 274 300 295 284 283 279 282 286 178 136 219 211 196 248 261 264 252 255 120 142 174 177 180 177 188 193 187 194 201 181 247 177 159 144 145 145 143 139 136 136 135 148 150 162 164 143 141 144 152 163 174 173 176 166 163 175 171 165 182 175 183 188 191 191 189 175 172 173 173 179 173 166 168 161 165 180 170 162 165 165 160 150 138 141 139 116 129 133 131 134 116 174 145 144 154 153
289 233 271 285 272 254 288 296 326 58 90 208 188 185 243 261 267 224 174 168 177 176 175 189 176 185 193 196 200 187 154 178 185 157 149 153 150 142 135 137 144 146 150 166 167 148 144 145 150 154 170 179 179 180 166 177 197 186 172 177 178 179 199 189 179 160 158 163 175 177 177 173 163 166 162 169 175 166 161 161 165 151 143 140 132 129 130 131 136 141 153 148 148 78 105 155 172
252 294 296 259 271 358 300 307 5 351 65 197 191 175 257 309 310 320 270 158 218 187 190 184 181 179 188 192 190 190 189 171 183 178 163 161 149 130 123 128 131 139 151 169 156 146 142 154 159 164 179 185 177 191 190 195 171 108 46 52 55 46 139 109 94 106 129 141 176 172 173 170 166 166 163 166 166 152 165 166 144 139 146 151 148 139 139 142 142 145 150 161 141 134 146 183 214
253 218 229 260 288 245 187 265 337 350 345 82 62 43 339 338 342 328 311 20 10 131 188 195 207 190 189 191 188 183 184 189 168 157 155 133 101 101 122 131 139 146 167 172 154 149 148 159 169 174 179 185 186 192 197 189 123 98 90 78 69 69 67 101 136 147 157 173 167 166 188 179 168 164 157 159 161 161 159 157 149 152 147 151 148 142 153 158 154 162 163 172 165 157 162 173 208
277 234 214 234 235 241 257 34 45 12 338 329 117 29 317 300 308 266 282 353 352 14 129 199 210 231 294 176 196 209 214 45 59 48 64 89 110 109 115 126 137 150 176 173 151 152 152 166 173 177 183 182 188 192 190 174 162 151 145 146 152 163 164 177 189 166 156 182 191 159 154 180 168 153 162 166 156 152 166 170 148 142 132 127 140 147 151 147 147 155 174 175 172 179 160 166 187
207 263 212 214 207 242 306 339 78 35 76 285 77 131 258 331 317 287 317 16 18 17 39 223 217 243 255 234 224 41 49 53 76 94 93 89 92 94 106 130 142 153 202 138 144 158 164 172 175 178 187 182 183 191 180 169 162 166 170 172 171 175 177 188 143 130 158 191 152 166 168 170 166 164 175 169 159 161 171 165 146 146 133 140 148 131 153 171 145 136 156 189 167 158 155 165 173
217 241 192 174 25 309 283 59 111 224 289 314 26 119 151 315 292 307 30 46 26 29 15 10 355 326 231 205 90 94 95 104 110 91 98 108 117 125 132 141 157 180 194 89 90 119 175 184 193 187 191 186 181 180 179 178 167 158 158 161 164 166 184 176 165 141 118 141 185 164 169 188 180 180 175 174 169 166 163 154 147 138 143 160 165 165 169 160 127 112 163 231 154 165 167 160 172
209 238 204 242 218 247 307 293 162 203 132 277 323 328 74 280 280 354 50 64 19 13 17 19 22 32 45 64 68 75 78 66 74 94 109 121 125 127 137 153 175 188 64 57 56 23 343 314 262 254 238 205 181 182 184 176 161 154 154 156 150 140 140 156 151 146 147 148 188 166 178 197 193 187 181 175 173 161 161 163 157 151 160 167 167 179 167 165 158 155 165 192 163 174 176 166 156
246 189 165 195 48 72 19 203 125 19 73 286 270 262 122 281 312 354 354 69 34 349 5 29 39 48 45 57 66 64 61 63 63 74 86 96 112 114 126 133 169 112 77 107 107 104 68 4 331 305 276 288 295 201 193 163 150 146 155 163 155 153 147 146 159 166 166 156 160 207 190 196 193 191 195 181 173 165 157 162 164 158 168 164 173 176 164 168 158 159 171 163 163 164 181 167 176
202 122 118 18 15 7 26 83 96 60 62 244 232 274 130 95 346 337 28 354 189 358 24 38 43 39 45 49 52 58 65 68 70 73 70 74 83 111 131 147 178 55 225 199 149 135 131 118 25 328 294 325 356 314 246 170 154 155 168 166 163 160 164 159 166 173 164 165 165 186 197 200 187 194 193 188 175 166 159 162 162 162 166 167 169 162 170 162 158 158 154 143 153 161 171 180 167
112 114 169 352 323 19 31 339 45 112 274 253 251 143 103 118 291 332 353 46 81 77 64 48 51 46 40 39 49 57 65 75 81 79 79 87 93 96 114 136 162 208 226 241 324 109 146 133 136 112 332 319 308 182 198 191 161 160 165 166 167 165 167 172 180 182 180 178 173 180 200 199 195 189 189 176 169 164 158 164 157 156 166 160 171 165 159 154 146 141 144 149 153 163 164 167 164
110 76 51 132 266 39 281 13 302 215 194 255 236 152 30 49 108 329 19 77 67 64 79 78 75 67 57 61 64 62 63 73 100 125 134 141 142 147 155 166 186 208 213 208 13 14 314 204 152 161 189 217 215 174 187 184 177 177 176 170 168 163 174 179 183 182 183 180 177 179 180 197 182 174 186 177 174 162 159 156 163 161 160 161 159 147 156 142 138 141 145 148 149 156 170 165 165
101 140 126 116 111 78 204 280 229 321 293 269 315 33 99 195 77 0 75 72 71 75 62 38 40 46 46 36 32 35 27 19 13 16 25 104 143 157 166 179 194 202 180 102 27 24 149 203 174 170 189 187 183 183 180 185 188 185 182 170 167 168 180 180 188 184 186 184 174 178 180 184 176 179 175 182 171 157 160 165 164 165 157 155 154 148 148 146 141 146 153 156 165 169 156 163 164
189 137 145 175 143 154 201 190 165 203 209 287 295 117 209 137 146 273 51 56 71 71 65 56 51 34 39 49 47 43 38 30 16 17 12 353 346 342 292 267 288 26 26 26 355 9 240 196 176 169 165 179 175 185 183 189 194 187 174 158 161 95 69 239 201 195 185 178 175 173 178 179 171 170 172 169 154 157 162 154 160 158 160 155 147 141 144 141 149 148 163 167 164 161 159 155 156
230 143 87 94 207 136 149 203 143 221 238 353 359 130 148 104 140 107 99 92 75 85 82 77 70 67 55 46 35 33 31 29 25 26 24 16 350 346 350 337 353 10 6 335 5 18 349 340 37 120 184 188 190 186 195 187 190 168 133 125 119 57 247 231 255 234 225 165 156 119 59 229 163 160 156 149 155 153 156 154 156 158 155 152 153 149 150 147 151 150 155 158 162 161 151 160 166
259 115 148 208 177 120 109 21 72 99 43 257 171 57 5 345 75 54 59 66 61 65 75 76 75 71 63 53 44 34 29 29 27 21 14 8 9 3 346 348 359 2 348 315 313 356 30 349 338 301 225 226 209 202 183 176 149 158 134 108 135 177 223 226 230 242 71 35 37 92 133 278 248 147 153 145 140 143 145 147 146 146 149 151 148 152 151 148 147 149 154 153 158 153 146 165 153
86 129 230 64 115 113 131 198 357 100 162 252 131 163 174 135 195 327 61 74 67 68 71 77 77 70 64 54 46 39 30 27 33 40 33 20 10 21 13 322 353 342 262 283 303 330 58 303 254 268 341 328 310 121 133 164 193 186 158 165 177 183 190 193 139 45 76 121 203 10 91 177 272 202 139 135 130 132 136 140 138 145 147 146 149 152 150 149 141 149 157 161 159 152 152 142 168
151 186 188 124 259 222 313 97 150 109 207 234 19 11 309 148 180 327 86 94 88 83 79 70 59 50 51 49 45 43 43 37 28 25 25 18 14 2 349 354 356 355 293 259 271 317 339 220 214 210 140 58 334 211 197 199 174 184 185 186 179 179 184 159 130 124 148 156 149 152 210 211 213 236 124 127 127 124 127 134 137 141 140 144 149 153 150 150 148 146 157 153 150 151 151 161 179
1 67 81 200 104 150 149 201 175 126 231 112 291 76 191 211 204 179 115 108 103 89 76 69 63 54 49 46 38 35 33 32 26 21 17 16 13 11 10 9 4 357 355 348 350 4 347 331 112 133 161 147 144 199 182 183 196 186 157 167 181 175 166 162 154 157 153 146 130 154 177 218 224 174 134 133 135 133 132 131 138 140 137 143 153 150 150 152 149 158 158 150 160 152 154 164 177
180 170 313 76 205 210 124 123 141 175 181 179 154 260 278 258 276 139 118 96 97 94 85 77 72 66 62 61 52 39 38 23 14 18 14 13 9 6 7 9 10 9 3 0 9 357 346 330 350 33 159 176 173 181 194 212 194 155 146 163 166 161 160 163 158 150 137 153 147 159 181 208 208 143 137 133 135 139 134 134 138 139 140 147 148 145 152 148 153 158 169 157 155 158 160 168 154
164 168 193 180 168 198 182 257 349 105 129 203 133 221 277 268 50 121 115 94 84 76 83 78 70 67 58 40 44 46 42 28 13 11 10 8 8 4 4 5 8 12 11 2 349 354 359 348 330 321 320 269 169 161 182 196 187 148 157 168 167 156 151 161 158 146 142 163 164 169 182 219 170 142 139 136 136 138 135 135 138 136 138 148 150 148 154 145 151 158 165 158 156 158 160 161 158